Abrahamtelep, Hungary

3:46 PM CET on February 25, 2018 (GMT +0100)
Abrahamtelep

Weather History for 12860 - February, 2014

Change the Weather History Date:

Saturday, February 8, 2014

  Actual Average Record
Temperature  
Mean Temperature 42 °F -  
Max Temperature 46 °F - - ()
Min Temperature 37 °F - - ()
Degree Days  
Heating Degree Days 24    
Moisture  
Dew Point 40 °F    
Average Humidity 93    
Maximum Humidity 100    
Minimum Humidity 80    
Precipitation  
Precipitation 0.16 in - - ()
Sea Level Pressure  
Sea Level Pressure 29.81 in    
Wind  
Wind Speed 5 mph ()    
Max Wind Speed 9 mph    
Max Gust Speed -    
Visibility 3.4 miles    
Events Fog , Rain    
T = Trace of Precipitation, MM = Missing Value Source: Averaged Metar Reports

Daily Weather History Graph

Daily Weather History Graph

Search for Another Location

Airport or City:

Trip Planner

Search our weather history database for the weather conditions in past years. The results will help you decide how hot, cold, wet, or windy it might be!

Date:

Astronomy

Feb. 08, 2014 Rise Set
Actual Time 6:55 AM CET 4:52 PM CET
Civil Twilight 6:23 AM CET 5:24 PM CET
Nautical Twilight 5:46 AM CET 6:00 PM CET
Astronomical Twilight 5:11 AM CET 6:35 PM CET
Moon 11:27 AM CET (2/8) 1:55 AM CET (2/8)
Length of Visible Light 11h 01m
Length of Day
9h 57m
Waxing Gibbous, 66% of the Moon is Illuminated
Feb 8
Waxing Gibbous
Feb 15
Full
Feb 22
Last Quarter
Mar 1
New
Mar 8
First Quarter

Hourly Weather History & Observations

Time (CET) Temp. Windchill Dew Point Humidity Pressure Visibility Wind Dir Wind Speed Gust Speed Precip Events Conditions
12:00 AM 42 °F - 38 °F 80% 29.84 in 5 mi SSW 6.7 mph - -   Overcast
12:15 AM 42.8 °F 37.6 °F 39.2 °F 87% 29.83 in 5.0 mi SSW 8.9 mph - N/A   Unknown
12:45 AM 42.8 °F 37.6 °F 37.4 °F 81% 29.83 in 5.0 mi SSW 8.9 mph - N/A   Unknown
1:15 AM 41.0 °F 36.5 °F 37.4 °F 87% 29.83 in 3.7 mi SSW 6.7 mph - N/A   Unknown
1:45 AM 39.2 °F 34.4 °F 37.4 °F 93% 29.83 in 3.7 mi SSW 6.7 mph - N/A   Unknown
2:00 AM 40 °F - 37 °F 85% 29.86 in 4 mi SSW 6.7 mph - -   Overcast
2:15 AM 39.2 °F 36.0 °F 37.4 °F 93% 29.83 in 3.7 mi SSW 4.5 mph - N/A   Unknown
2:45 AM 41.0 °F 35.4 °F 37.4 °F 87% 29.83 in 5.0 mi SSW 8.9 mph - N/A   Unknown
3:00 AM 41 °F - 37 °F 82% 29.86 in 5 mi SSW 8.9 mph - -   Overcast
3:15 AM 41.0 °F - 37.4 °F 87% 29.83 in 5.0 mi SSW 2.2 mph - N/A   Unknown
3:45 AM 41.0 °F 38.1 °F 37.4 °F 87% 29.83 in 5.0 mi SW 4.5 mph - N/A   Unknown
4:00 AM 40 °F - 37 °F 85% 29.86 in 5 mi SW 4.5 mph - -   Overcast
4:15 AM 37.4 °F 33.9 °F 35.6 °F 93% 29.83 in 5.0 mi SSW 4.5 mph - N/A   Unknown
4:45 AM 39.2 °F 36.0 °F 37.4 °F 93% 29.83 in 5.0 mi SSW 4.5 mph - N/A   Unknown
5:00 AM 39 °F - 37 °F 89% 29.86 in 5 mi SSW 4.5 mph - -   Overcast
5:15 AM 39.2 °F 36.0 °F 37.4 °F 93% 29.86 in 5.0 mi SW 4.5 mph - N/A   Unknown
5:34 AM 39.2 °F 36.0 °F 35.6 °F 87% 29.86 in 3.7 mi WSW 4.5 mph - N/A Rain Light Rain
5:45 AM - - - N/A% - 5.0 mi Variable 4.5 mph - N/A   Overcast
6:00 AM 38 °F - 37 °F 94% 29.88 in 3 mi WSW 4.5 mph - - Rain Light Rain
6:15 AM 39.2 °F 36.0 °F 37.4 °F 93% 29.86 in 2.5 mi SW 4.5 mph - N/A Rain Light Rain
6:45 AM 39.2 °F - 37.4 °F 93% 29.86 in 2.5 mi WSW 2.2 mph - N/A Rain Light Rain
6:55 AM 39.2 °F - 37.4 °F 93% 29.86 in 1.9 mi SW 2.2 mph - N/A Rain Light Rain
7:00 AM 39 °F - 38 °F 94% 29.88 in 2 mi WSW 2.2 mph - - Rain Light Rain
7:00 AM - - - N/A% - 5.0 mi Variable 4.5 mph - N/A   Overcast
7:15 AM 39.2 °F - 37.4 °F 93% 29.86 in 1.2 mi Calm Calm - N/A Rain Light Rain
7:22 AM 37.4 °F - 37.4 °F 100% 29.86 in 0.9 mi Calm Calm - N/A Rain Light Rain
7:45 AM 37.4 °F - 37.4 °F 100% 29.86 in 0.7 mi Calm Calm - N/A Rain Light Rain
8:00 AM 37 °F - 37 °F 98% 29.88 in 1 mi Calm Calm - - Rain Light Rain
8:15 AM 39.2 °F 36.0 °F 39.2 °F 100% 29.86 in 0.6 mi West 4.5 mph - N/A Rain Light Rain
8:45 AM - - - N/A% - 1.9 mi Variable 4.5 mph - N/A   Overcast
8:51 AM 39.2 °F - 39.2 °F 100% 29.86 in 0.3 mi North 2.2 mph - N/A Fog , Rain Rain
8:54 AM - - - N/A% - 0.9 mi Variable 4.5 mph - N/A   Overcast
8:58 AM - - - N/A% - 0.9 mi Variable 4.5 mph - N/A   Overcast
9:00 AM 39 °F - 38 °F 96% 29.87 in 0 mi NNW 2.2 mph - - Rain Light Rain
9:15 AM 39.2 °F 36.0 °F 37.4 °F 93% 29.86 in 0.3 mi SSE 4.5 mph - N/A Fog , Rain Rain
9:45 AM 39.2 °F 36.0 °F 39.2 °F 100% 29.83 in 0.5 mi SE 4.5 mph - N/A Fog , Rain Light Rain
10:00 AM 39 °F - 39 °F 98% 29.87 in 0 mi SE 4.5 mph - - Rain Light Rain
10:12 AM 39.2 °F 36.0 °F 39.2 °F 100% 29.86 in 0.6 mi SE 4.5 mph - N/A Rain Rain
10:15 AM 39.2 °F 36.0 °F 39.2 °F 100% 29.83 in 0.7 mi SSE 4.5 mph - N/A Rain Rain
10:45 AM 41.0 °F 38.1 °F 41.0 °F 100% 29.86 in 0.9 mi South 4.5 mph - N/A Rain Light Rain
11:00 AM 41 °F - 40 °F 97% 29.87 in 1 mi South 4.5 mph - - Rain Light Rain
11:15 AM 42.8 °F 40.2 °F 42.8 °F 100% 29.83 in 1.6 mi South 4.5 mph - N/A Rain Light Rain
11:45 AM - - - N/A% - 3.1 mi SSE 6.7 mph - N/A Rain Light Rain
12:00 PM 42 °F - 41 °F 96% 29.86 in 2 mi South 4.5 mph - - Rain Light Rain
12:15 PM 42.8 °F 38.7 °F 41.0 °F 93% 29.83 in 2.5 mi South 6.7 mph - N/A Rain Light Rain
12:45 PM 44.6 °F 39.8 °F 42.8 °F 93% 29.80 in 3.1 mi South 8.9 mph - N/A   Mostly Cloudy
1:00 PM 44 °F - 42 °F 90% 29.83 in 3 mi South 8.9 mph - - Rain Light Rain
1:15 PM 44.6 °F 42.3 °F 42.8 °F 93% 29.80 in 3.7 mi South 4.5 mph - N/A   Unknown
1:45 PM 44.6 °F 42.3 °F 42.8 °F 93% 29.77 in 3.7 mi South 4.5 mph - N/A   Unknown
2:00 PM 45 °F - 42 °F 86% 29.81 in 4 mi South 4.5 mph - -   Mostly Cloudy
2:15 PM 46.4 °F 43.0 °F 41.0 °F 81% 29.77 in 5.0 mi SSE 6.7 mph - N/A   Unknown
2:45 PM - - - N/A% - 1.9 mi SSE 6.7 mph - N/A Rain Light Rain
3:00 PM 46 °F - 42 °F 80% 29.79 in 5 mi SE 6.7 mph - -   Partly Cloudy
3:15 PM 44.6 °F 40.8 °F 42.8 °F 93% 29.77 in 5.0 mi SSE 6.7 mph - N/A   Unknown
3:45 PM 46.4 °F 44.4 °F 42.8 °F 87% 29.74 in 5.0 mi SE 4.5 mph - N/A   Mostly Cloudy
4:00 PM 46 °F - 43 °F 85% 29.78 in 5 mi SE 4.5 mph - -   Mostly Cloudy
4:15 PM 46.4 °F 44.4 °F 42.8 °F 87% 29.77 in 5.0 mi SSE 4.5 mph - N/A   Mostly Cloudy
4:45 PM 44.6 °F - 42.8 °F 93% 29.74 in 5.0 mi ENE 2.2 mph - N/A   Mostly Cloudy
5:00 PM 44 °F - 43 °F 93% 29.77 in 5 mi ENE 2.2 mph - -   Mostly Cloudy
5:15 PM 44.6 °F 42.3 °F 42.8 °F 93% 29.74 in 5.0 mi ESE 4.5 mph - N/A   Mostly Cloudy
5:45 PM - - - N/A% - 5.0 mi South 6.7 mph - N/A   Mostly Cloudy
6:00 PM 44 °F - 42 °F 92% 29.77 in 6 mi ESE 2.2 mph - -   Mostly Cloudy
6:15 PM 42.8 °F - 42.8 °F 100% 29.74 in 6.2 mi East 2.2 mph - N/A   Overcast
6:45 PM 42.8 °F 40.2 °F 41.0 °F 93% 29.74 in - ESE 4.5 mph - N/A   Clear
7:00 PM 42 °F - 41 °F 97% 29.76 in 6 mi ESE 4.5 mph - -   Overcast
7:15 PM 42.8 °F - 41.0 °F 93% 29.74 in - ESE 2.2 mph - N/A   Clear
7:45 PM 41.0 °F - 41.0 °F 100% 29.74 in - ESE 2.2 mph - N/A   Clear
8:00 PM 42 °F - 41 °F 95% 29.75 in 6 mi ESE 2.2 mph - -   Mostly Cloudy
8:15 PM 42.8 °F 38.7 °F 41.0 °F 93% 29.71 in 5.0 mi ESE 6.7 mph - N/A   Unknown
8:45 PM - - - N/A% - 1.9 mi SE 6.7 mph - N/A   Mist
9:00 PM 42 °F - 41 °F 96% 29.73 in 5 mi SE 4.5 mph - -   Mostly Cloudy
9:15 PM 42.8 °F - 41.0 °F 93% 29.71 in - SSE 2.2 mph - N/A   Clear
9:45 PM 41.0 °F - 41.0 °F 100% 29.71 in - SSE 2.2 mph - N/A   Clear
10:00 PM 41 °F - 40 °F 96% 29.73 in 6 mi SSE 2.2 mph - -   Mostly Cloudy
10:15 PM 41.0 °F - 41.0 °F 100% 29.71 in - South 2.2 mph - N/A   Clear
10:45 PM 41.0 °F 38.1 °F 41.0 °F 100% 29.68 in - SSE 4.5 mph - N/A   Clear
11:00 PM 42 °F - 41 °F 95% 29.71 in 6 mi SSE 4.5 mph - -   Mostly Cloudy
11:15 PM 41.0 °F 38.1 °F 39.2 °F 93% 29.68 in - South 4.5 mph - N/A   Clear
11:45 PM - - - N/A% - 0.6 mi North - - N/A   Mist